This demonstration page uses our WeatherBlox Daily Observations layout. Learn more.

Left ArrowRight Arrow

41.86663, -103.66717

Hourly Observations for December 7, 2020

Temp ( °F °C ) Dew Point ( °F °C ) Humidity (%) Winds ( mph kmh ) Pressure ( in mb ) Visibility ( mi km ) Precip ( " mm )
12:53 am 00:53 Clear 26 -3.3 10 -12.2 51 51 WNW 9 15 30.29 1026 10 16 0.00 0.00
1:53 am 01:53 Clear 26 -3.3 11 -11.7 53 53 WNW 8 13 30.29 1026 10 16 0.00 0.00
2:53 am 02:53 Clear 24 -4.4 11 -11.7 57 57 NW 9 15 30.30 1026 10 16 0.00 0.00
3:53 am 03:53 Clear 25 -3.9 12 -11.1 58 58 WNW 13 20 30.33 1027 10 16 0.00 0.00
4:53 am 04:53 Clear 24 -4.4 12 -11.1 60 60 NW 13 20 30.37 1028 10 16 0.00 0.00
5:53 am 05:53 Clear 24 -4.4 12 -11.1 60 60 NW 12 19 30.40 1029 10 16 0.00 0.00
6:53 am 06:53 Clear 23 -5 11 -11.7 60 60 NNW 7 11 30.52 1033 10 16 0.00 0.00
7:53 am 07:53 Sunny 25 -3.9 12 -11.1 58 58 NNW 6 9 30.42 1030 10 16 0.00 0.00
8:53 am 08:53 Sunny 32 0 13 -10.6 45 45 WNW 7 11 30.41 1030 10 16 0.00 0.00
9:53 am 09:53 Sunny 38 3.3 14 -10 37 37 NW 13 20 30.41 1030 10 16 0.00 0.00
10:53 am 10:53 Sunny 48 8.9 14 -10 25 25 WNW 13 20 30.35 1028 10 16 0.00 0.00
11:53 am 11:53 Sunny 54 12.2 13 -10.6 19 19 WNW 15 24 30.32 1027 10 16 0.00 0.00
12:53 pm 12:53 Sunny 59 15 12 -11.1 15 15 W 16 26 30.28 1026 10 16 0.00 0.00
1:53 pm 13:53 Sunny 60 15.6 11 -11.7 14 14 W 14 22 30.26 1025 10 16 0.00 0.00
2:53 pm 14:53 Sunny 60 15.6 9 -12.8 13 13 W 13 20 30.24 1024 10 16 0.00 0.00
3:53 pm 15:53 Sunny 55 12.8 9 -12.8 16 16 W 12 19 30.24 1024 10 16 0.00 0.00
4:53 pm 16:53 Clear 45 7.2 9 -12.8 23 23 WNW 6 9 30.27 1025 10 16 0.00 0.00
5:53 pm 17:53 Clear 38 3.3 8 -13.3 29 29 NW 6 9 30.29 1026 10 16 0.00 0.00
6:53 pm 18:53 Clear 32 0 7 -13.9 35 35 NW 6 9 30.33 1027 10 16 0.00 0.00
7:53 pm 19:53 Clear 31 -0.6 7 -13.9 36 36 NW 9 15 30.35 1028 10 16 0.00 0.00
8:53 pm 20:53 Clear 30 -1.1 7 -13.9 38 38 NW 8 13 30.34 1027 10 16 0.00 0.00
9:53 pm 21:53 Clear 29 -1.7 7 -13.9 39 39 NW 8 13 30.33 1027 10 16 0.00 0.00

Powered by AerisWeather